Zurück zum Katalog

TITAN 3C TRANSTAGE DEB *

LostGTO
NORAD 34166·DEBRIS·🇺🇸 United States

Gestartet Dec 21, 1965 von Cape Canaveral Space Force Station

Loading…

TLE

VeraltetSource: Space-Track

Epoche: Dec 6, 2025, 01:23 UTC

1 34166U 65108CZ  25340.05826804  .00000484  00000-0  62718-3 0  9990
2 34166  25.1183 234.0689 7215617 221.9658  51.5176  2.31538461  6853

Verfolge TITAN 3C TRANSTAGE DEB * in Echtzeit mit AllMySat

Download on the App Store